Tracking 31027 objects as of 19-Jul-2025
HD Live streaming from Space Station
objects crossing your sky now

SL-8 DEB *

Track SL-8 DEB * now!
10-day predictions


NORAD ID: 14865
Int'l Code: 1975-094E
Perigee: 633.5 km
Apogee: 638.0 km
Inclination: 74.0 °
Period: 97.3 minutes
Semi major axis: 7006 km
RCS: 0.0088 m2 (small)
Launch date: September 30, 1975
Source: Commonwealth of Independent States (former USSR) (CIS)
Launch site: PLESETSK MISSILE AND SPACE COMPLEX (PKMTR)

Note: This is SATELLITE DEBRIS
Your satellite tracking list
RESURS O1 DEB
Track 1 satellite(s)




NASA's NSSDC Master Catalog

Two Line Element Set (TLE):
1 14865U 75094E   25199.79864865  .00003323  00000-0  44116-3 0  9998
2 14865  74.0202 121.2619 0003218 240.8793 149.9726 14.80235944189152
Source of the keplerian elements: AFSPC